When you browse on this site, cookies collect data to enhance your experience and personalize the content and advertising you see.
Visit our Privacy Policy to learn more. By continuing to use the site, you agree to this use of cookies and data.
  • In Slovakia
  • List of Countries
  • For 7 days
  • Water Temperature
  • Weather Map
  • Weather Widgets
  • user-avatar
    Login

    Hourly Weather Hobart

    Today, 27 January, Monday

    Time Temperature Precipitation Wind Pressure Humidity
    00:00 +13°C° 0 mm 2 mps 745 mmHg 70%
    01:00 +13°C° 0 mm 2 mps 745 mmHg 70%
    02:00 +13°C° 0 mm 2 mps 745 mmHg 71%
    03:00 +13°C° 0 mm 1 mps 745 mmHg 72%
    04:00 +13°C° 0 mm 1 mps 745 mmHg 72%
    05:00 +13°C° 0 mm 1 mps 745 mmHg 72%
    06:00 +13°C° 0 mm 1 mps 745 mmHg 71%
    07:00 +13°C° 0 mm 1 mps 745 mmHg 70%
    08:00 +14°C° 0 mm 2 mps 746 mmHg 66%
    09:00 +15°C° 0 mm 2 mps 746 mmHg 62%
    10:00 +16°C° 0 mm 3 mps 745 mmHg 58%
    11:00 +18°C° 0 mm 3 mps 745 mmHg 52%
    12:00 +20°C° 0 mm 3 mps 745 mmHg 46%
    13:00 +21°C° 0 mm 4 mps 745 mmHg 39%
    14:00 +21°C° 0 mm 4 mps 745 mmHg 39%
    15:00 +22°C° 0 mm 4 mps 745 mmHg 40%
    16:00 +21°C° 0 mm 3 mps 745 mmHg 41%
    17:00 +20°C° 0 mm 3 mps 745 mmHg 47%
    18:00 +19°C° 0 mm 2 mps 745 mmHg 54%
    19:00 +18°C° 0 mm 1 mps 745 mmHg 61%
    20:00 +16°C° 0 mm 1 mps 745 mmHg 67%
    21:00 +14°C° 0 mm 2 mps 746 mmHg 72%
    22:00 +12°C° 0 mm 3 mps 746 mmHg 74%
    23:00 +12°C° 0 mm 3 mps 745 mmHg 75%

    Tomorrow, 28 January, Tuesday

    Time Temperature Precipitation Wind Pressure Humidity
    00:00 +12°C° 0 mm 3 mps 745 mmHg 76%
    01:00 +12°C° 0 mm 3 mps 744 mmHg 77%
    02:00 +12°C° 0 mm 3 mps 744 mmHg 76%
    03:00 +13°C° 0 mm 2 mps 743 mmHg 76%
    04:00 +13°C° 0 mm 2 mps 743 mmHg 75%
    05:00 +13°C° 0 mm 2 mps 743 mmHg 73%
    06:00 +14°C° 0 mm 2 mps 744 mmHg 71%
    07:00 +14°C° 0 mm 2 mps 744 mmHg 69%
    08:00 +16°C° 0 mm 3 mps 744 mmHg 64%
    09:00 +18°C° 0 mm 4 mps 744 mmHg 59%
    10:00 +20°C° 0 mm 4 mps 744 mmHg 53%
    11:00 +20°C° 0 mm 4 mps 744 mmHg 56%
    12:00 +20°C° 0 mm 4 mps 743 mmHg 58%
    13:00 +19°C° 0 mm 5 mps 743 mmHg 61%
    14:00 +19°C° 0 mm 4 mps 743 mmHg 64%
    15:00 +19°C° 0 mm 3 mps 743 mmHg 66%
    16:00 +19°C° 0 mm 2 mps 743 mmHg 69%
    17:00 +18°C° 0 mm 2 mps 743 mmHg 72%
    18:00 +18°C° 0 mm 2 mps 744 mmHg 75%
    19:00 +17°C° 0 mm 2 mps 744 mmHg 79%
    20:00 +17°C° 0.1 mm 2 mps 744 mmHg 81%
    21:00 +16°C° 0.1 mm 2 mps 745 mmHg 82%
    22:00 +16°C° 0.1 mm 2 mps 745 mmHg 84%
    23:00 +15°C° 0 mm 2 mps 745 mmHg 86%

    Day after tomorrow, 29 January, Wednesday

    Time Temperature Precipitation Wind Pressure Humidity
    00:00 +14°C° 0 mm 2 mps 745 mmHg 89%
    01:00 +14°C° 0 mm 2 mps 745 mmHg 91%
    02:00 +13°C° 0 mm 2 mps 745 mmHg 92%
    03:00 +13°C° 0 mm 2 mps 745 mmHg 92%
    04:00 +13°C° 0 mm 2 mps 745 mmHg 93%
    05:00 +14°C° 0 mm 2 mps 745 mmHg 89%
    06:00 +15°C° 0 mm 2 mps 745 mmHg 85%
    07:00 +16°C° 0 mm 2 mps 746 mmHg 81%
    08:00 +18°C° 0 mm 2 mps 746 mmHg 73%
    09:00 +20°C° 0 mm 2 mps 746 mmHg 65%
    10:00 +22°C° 0 mm 3 mps 746 mmHg 57%
    11:00 +24°C° 0 mm 3 mps 746 mmHg 53%
    12:00 +25°C° 0 mm 3 mps 745 mmHg 48%
    13:00 +26°C° 0 mm 4 mps 745 mmHg 44%
    14:00 +26°C° 0 mm 4 mps 745 mmHg 42%
    15:00 +27°C° 0 mm 4 mps 745 mmHg 40%
    16:00 +27°C° 0 mm 4 mps 744 mmHg 38%
    17:00 +26°C° 0 mm 3 mps 744 mmHg 42%
    18:00 +24°C° 0 mm 3 mps 744 mmHg 47%
    19:00 +23°C° 0 mm 2 mps 744 mmHg 51%
    20:00 +21°C° 0 mm 2 mps 744 mmHg 54%
    21:00 +19°C° 0 mm 3 mps 744 mmHg 57%
    22:00 +18°C° 0 mm 3 mps 744 mmHg 60%
    23:00 +18°C° 0 mm 3 mps 743 mmHg 59%

    30 January, Thursday

    Time Temperature Precipitation Wind Pressure Humidity
    00:00 +18°C° 0 mm 3 mps 743 mmHg 58%
    01:00 +17°C° 0 mm 3 mps 743 mmHg 57%
    02:00 +18°C° 0 mm 3 mps 742 mmHg 54%
    03:00 +18°C° 0 mm 3 mps 742 mmHg 50%
    04:00 +18°C° 0 mm 3 mps 742 mmHg 47%
    05:00 +19°C° 0 mm 2 mps 742 mmHg 43%
    06:00 +20°C° 0 mm 2 mps 742 mmHg 40%
    07:00 +23°C° 0 mm 2 mps 742 mmHg 36%
    08:00 +25°C° 0 mm 3 mps 743 mmHg 31%
    09:00 +28°C° 0 mm 3 mps 743 mmHg 26%
    10:00 +30°C° 0 mm 3 mps 743 mmHg 20%
    11:00 +32°C° 0 mm 4 mps 743 mmHg 19%
    12:00 +33°C° 0 mm 4 mps 742 mmHg 19%
    13:00 +34°C° 0 mm 4 mps 742 mmHg 18%
    14:00 +33°C° 0 mm 4 mps 742 mmHg 20%
    15:00 +32°C° 0 mm 4 mps 743 mmHg 23%
    16:00 +31°C° 0 mm 3 mps 743 mmHg 26%
    17:00 +27°C° 0 mm 3 mps 743 mmHg 41%
    18:00 +24°C° 0 mm 3 mps 744 mmHg 56%
    19:00 +19°C° 0 mm 4 mps 744 mmHg 71%
    20:00 +18°C° 0 mm 3 mps 745 mmHg 78%
    21:00 +17°C° 0 mm 2 mps 745 mmHg 85%
    22:00 +15°C° 0 mm 1 mps 746 mmHg 93%
    23:00 +15°C° 0 mm 1 mps 746 mmHg 92%

    31 January, Friday

    Time Temperature Precipitation Wind Pressure Humidity
    00:00 +15°C° 0 mm 1 mps 746 mmHg 91%
    01:00 +16°C° 0 mm 1 mps 746 mmHg 90%
    02:00 +15°C° 0 mm 1 mps 746 mmHg 90%
    03:00 +15°C° 0 mm 1 mps 745 mmHg 90%
    04:00 +15°C° 0 mm 1 mps 745 mmHg 91%
    05:00 +16°C° 0 mm 1 mps 745 mmHg 86%
    06:00 +18°C° 0 mm 1 mps 745 mmHg 81%
    07:00 +17°C° 0 mm 2 mps 745 mmHg 77%
    08:00 +20°C° 0 mm 2 mps 745 mmHg 65%
    09:00 +24°C° 0 mm 2 mps 745 mmHg 53%
    10:00 +27°C° 0 mm 2 mps 745 mmHg 42%
    11:00 +28°C° 0 mm 3 mps 744 mmHg 42%
    12:00 +29°C° 0 mm 3 mps 744 mmHg 42%
    13:00 +30°C° 0 mm 4 mps 743 mmHg 42%
    14:00 +29°C° 0 mm 3 mps 743 mmHg 43%
    15:00 +28°C° 0 mm 3 mps 743 mmHg 44%
    16:00 +28°C° 0 mm 3 mps 743 mmHg 45%
    17:00 +26°C° 0 mm 2 mps 742 mmHg 50%
    18:00 +25°C° 0 mm 2 mps 742 mmHg 55%
    19:00 +24°C° 0 mm 1 mps 741 mmHg 60%
    20:00 +23°C° 0.1 mm 2 mps 741 mmHg 62%
    21:00 +22°C° 0.1 mm 3 mps 741 mmHg 64%
    22:00 +21°C° 0.1 mm 4 mps 741 mmHg 67%
    23:00 +22°C° 0 mm 4 mps 740 mmHg 69%

    1 February, Saturday

    Time Temperature Precipitation Wind Pressure Humidity
    00:00 +22°C° 0 mm 4 mps 739 mmHg 71%
    01:00 +22°C° 0 mm 3 mps 739 mmHg 73%
    02:00 +24°C° 0 mm 3 mps 738 mmHg 73%
    03:00 +24°C° 0 mm 3 mps 737 mmHg 73%
    04:00 +24°C° 0 mm 3 mps 737 mmHg 73%
    05:00 +25°C° 0 mm 4 mps 736 mmHg 70%
    06:00 +26°C° 0 mm 5 mps 736 mmHg 67%
    07:00 +27°C° 0 mm 6 mps 736 mmHg 65%
    08:00 +27°C° 0 mm 6 mps 736 mmHg 64%
    09:00 +28°C° 0 mm 6 mps 736 mmHg 64%
    10:00 +28°C° 0 mm 6 mps 736 mmHg 64%
    11:00 +27°C° 0 mm 6 mps 737 mmHg 63%
    12:00 +26°C° 0 mm 6 mps 737 mmHg 63%
    13:00 +23°C° 0 mm 6 mps 737 mmHg 63%
    14:00 +22°C° 0 mm 6 mps 737 mmHg 60%
    15:00 +21°C° 0 mm 6 mps 738 mmHg 58%
    16:00 +19°C° 0 mm 6 mps 738 mmHg 55%
    17:00 +17°C° 0 mm 5 mps 739 mmHg 57%
    18:00 +16°C° 0 mm 5 mps 739 mmHg 58%
    19:00 +15°C° 0 mm 4 mps 740 mmHg 60%
    20:00 +14°C° 0 mm 4 mps 740 mmHg 62%
    21:00 +13°C° 0 mm 4 mps 741 mmHg 64%
    22:00 +12°C° 0 mm 4 mps 741 mmHg 67%
    23:00 +12°C° 0 mm 3 mps 741 mmHg 67%
    Show more